Willimantic, CT

11:18 AM EDT on April 24, 2017 (GMT -0400)
Windham

Weather History for KIJD - November, 2013

Change the Weather History Date:

Thursday, November 21, 2013

  Actual Average Record
Temperature  
Mean Temperature 32 °F -  
Max Temperature 46 °F 49 °F 70 °F (1985)
Min Temperature 18 °F 27 °F 11 °F (1986)
Degree Days  
Heating Degree Days 33    
Moisture  
Dew Point 22 °F    
Average Humidity 68    
Maximum Humidity 88    
Minimum Humidity 38    
Precipitation  
Precipitation 0.00 in - - ()
Sea Level Pressure  
Sea Level Pressure 30.56 in    
Wind  
Wind Speed 1 mph (SW)    
Max Wind Speed 7 mph    
Max Gust Speed -    
Visibility 10 miles    
Events Rain    
Averages and records for this station are not official NWS values.
T = Trace of Precipitation, MM = Missing Value Source: NWS Daily Summary

Daily Weather History Graph

Daily Weather History Graph

Search for Another Location

Airport or City:

Trip Planner

Search our weather history database for the weather conditions in past years. The results will help you decide how hot, cold, wet, or windy it might be!

Date:

Astronomy

Nov. 21, 2013 Rise Set
Actual Time 6:45 AM EST 4:23 PM EST
Civil Twilight 6:15 AM EST 4:53 PM EST
Nautical Twilight 5:41 AM EST 5:27 PM EST
Astronomical Twilight 5:07 AM EST 6:01 PM EST
Moon 7:58 PM EST (11/21) 9:49 AM EST (11/21)
Length of Visible Light 10h 38m
Length of Day
9h 38m
Waning Gibbous, 85% of the Moon is Illuminated
Nov 21
Waning Gibbous
Nov 25
Last Quarter
Dec 2
New
Dec 9
First Quarter
Dec 17
Full

Hourly Weather History & Observations

Time (EST) Temp. Windchill Dew Point Humidity Pressure Visibility Wind Dir Wind Speed Gust Speed Precip Events Conditions
12:52 AM 21.0 °F - 16.0 °F 81% 30.64 in 10.0 mi Calm Calm - N/A   Clear
1:52 AM 19.9 °F - 15.1 °F 81% 30.66 in 10.0 mi Calm Calm - N/A   Clear
2:52 AM 19.0 °F - 15.1 °F 85% 30.66 in 10.0 mi Calm Calm - N/A   Clear
3:52 AM 19.0 °F 13.9 °F 16.0 °F 88% 30.63 in 10.0 mi North 3.5 mph - N/A   Clear
4:52 AM 19.0 °F - 15.1 °F 85% 30.64 in 10.0 mi Calm Calm - N/A   Clear
5:52 AM 18.0 °F - 14.0 °F 84% 30.66 in 10.0 mi Calm Calm - N/A   Clear
6:52 AM 18.0 °F - 14.0 °F 84% 30.66 in 10.0 mi Calm Calm - N/A   Clear
7:52 AM 19.9 °F - 15.1 °F 81% 30.66 in 10.0 mi Calm Calm - N/A   Clear
8:52 AM 25.0 °F - 18.0 °F 75% 30.66 in 10.0 mi Calm Calm - N/A   Clear
9:52 AM 33.1 °F - 19.9 °F 59% 30.64 in 10.0 mi Calm Calm - N/A   Clear
10:52 AM 39.0 °F - 18.0 °F 43% 30.62 in 10.0 mi Calm Calm - N/A   Clear
11:52 AM 44.1 °F - 19.9 °F 38% 30.59 in 10.0 mi Calm Calm - N/A   Clear
12:52 PM 46.9 °F - 25.0 °F 42% 30.56 in 10.0 mi West 6.9 mph - N/A   Clear
1:52 PM 46.9 °F - 25.0 °F 42% 30.52 in 10.0 mi SW 6.9 mph - N/A   Clear
2:52 PM 46.0 °F 43.1 °F 25.0 °F 44% 30.51 in 10.0 mi South 5.8 mph - N/A   Clear
3:52 PM 46.0 °F 44.8 °F 26.1 °F 46% 30.50 in 10.0 mi South 3.5 mph - N/A   Clear
4:52 PM 41.0 °F - 27.0 °F 57% 30.49 in 10.0 mi Calm Calm - N/A   Clear
5:52 PM 39.0 °F - 27.0 °F 62% 30.50 in 10.0 mi Calm Calm - N/A   Clear
6:52 PM 37.9 °F - 28.9 °F 70% 30.50 in 10.0 mi Calm Calm - N/A   Partly Cloudy
7:52 PM 37.9 °F - 30.0 °F 73% 30.48 in 10.0 mi Calm Calm - N/A   Overcast
8:52 PM 37.9 °F - 30.0 °F 73% 30.46 in 10.0 mi Calm Calm - N/A   Overcast
9:52 PM 37.9 °F - 30.0 °F 73% 30.45 in 10.0 mi Calm Calm - 0.00 in Rain Light Rain
10:52 PM 37.9 °F 35.5 °F 32.0 °F 79% 30.43 in 10.0 mi NE 3.5 mph - 0.00 in   Overcast
11:52 PM 37.9 °F - 32.0 °F 79% 30.41 in 10.0 mi Calm Calm - N/A   Overcast